Weather History for Ankeny, IA

Change the Weather History Date:

Tuesday, June 10, 2014

  Actual Average (KDSM) Record (KDSM)
Temperature  
Mean Temperature 64 °F 70 °F  
Max Temperature 71 °F 80 °F 102 °F (1933)
Min Temperature 57 °F 61 °F 44 °F (1913)
Degree Days  
Heating Degree Days 1 1  
Month to date heating degree days 12  
Since 1 June heating degree days 12  
Since 1 July heating degree days 6197  
Cooling Degree Days 0 6  
Month to date cooling degree days 50  
Year to date cooling degree days 126  
Since 1 June cooling degree days 50  
Growing Degree Days 14 (Base 50)    
Moisture  
Dew Point 55 °F    
Average Humidity 70    
Maximum Humidity 94    
Minimum Humidity 57    
Precipitation  
Precipitation 0.00 in 0.15 in 3.51 in (1882)
Month to date precipitation 1.64  
Year to date precipitation 14.82  
Snow  
Snow 0.00 in 0.00 in - ()
Month to date snowfall 0.0  
Since 1 June snowfall 0.0  
Since 1 July snowfall 35.3  
Snow Depth -    
Sea Level Pressure  
Sea Level Pressure 29.86 in    
Wind  
Wind Speed 8 mph (ENE)    
Max Wind Speed 13 mph    
Max Gust Speed 21 mph    
Visibility 10 miles    
Events      
T = Trace of Precipitation, MM = Missing Value Source: NWS Daily Summary

Daily Weather History Graph

Daily Weather History Graph

Search for Another Location

Airport:

Trip Planner

Search our weather history database for the weather conditions in past years. The results will help you decide how hot, cold, wet, or windy it might be!

Date:

Astronomy

Jun. 10, 2014 Rise Set
Actual Time 5:39 AM CDT 8:48 PM CDT
Civil Twilight 5:05 AM CDT 9:22 PM CDT
Nautical Twilight 4:22 AM CDT 10:05 PM CDT
Astronomical Twilight 3:30 AM CDT 10:57 PM CDT
Moon 6:12 PM CDT (6/10) 3:47 AM CDT (6/10)
Length of Visible Light 16h 16m
Length of Day
15h 08m
Waxing Gibbous, 92% of the Moon is Illuminated
Jun 10
Waxing Gibbous
Jun 12
Full
Jun 19
Last Quarter
Jun 27
New
Jul 5
First Quarter

Hourly Weather History & Observations

Time (CDT) Temp. Dew Point Humidity Pressure Visibility Wind Dir Wind Speed Gust Speed Precip Events Conditions
12:15 AM 64.4 °F 53.6 °F 68% 29.89 in 10.0 mi NNE 8.1 mph - N/A   Partly Cloudy
12:35 AM 64.4 °F 51.8 °F 64% 29.88 in 10.0 mi NE 8.1 mph - N/A   Clear
12:55 AM 64.4 °F 51.8 °F 64% 29.88 in 10.0 mi NE 8.1 mph - N/A   Partly Cloudy
1:15 AM 64.4 °F 50.0 °F 59% 29.87 in 10.0 mi NE 8.1 mph - N/A   Partly Cloudy
1:35 AM 64.4 °F 50.0 °F 59% 29.87 in 10.0 mi NE 8.1 mph - N/A   Clear
1:55 AM 64.4 °F 50.0 °F 59% 29.87 in 9.0 mi NE 6.9 mph - N/A   Mostly Cloudy
2:15 AM 64.4 °F 50.0 °F 59% 29.86 in 10.0 mi NNE 8.1 mph - N/A   Overcast
2:35 AM 62.6 °F 50.0 °F 63% 29.86 in 10.0 mi NNE 5.8 mph - N/A   Scattered Clouds
2:55 AM 62.6 °F 50.0 °F 63% 29.85 in 10.0 mi NNE 9.2 mph - N/A   Clear
3:15 AM 62.6 °F 51.8 °F 68% 29.85 in 10.0 mi NNE 5.8 mph - N/A   Clear
3:35 AM 60.8 °F 51.8 °F 72% 29.85 in 10.0 mi NNE 6.9 mph - N/A   Clear
4:15 AM 60.8 °F 51.8 °F 72% 29.85 in 10.0 mi NE 6.9 mph - N/A   Clear
4:35 AM 59.0 °F 51.8 °F 77% 29.85 in 10.0 mi NNE 5.8 mph - N/A   Clear
4:55 AM 59.0 °F 51.8 °F 77% 29.85 in 10.0 mi Calm Calm - N/A   Clear
5:15 AM 59.0 °F 51.8 °F 77% 29.85 in 10.0 mi North 5.8 mph - N/A   Clear
5:35 AM 57.2 °F 51.8 °F 82% 29.85 in 10.0 mi North 6.9 mph - N/A   Clear
5:55 AM 57.2 °F 51.8 °F 82% 29.85 in 10.0 mi North 5.8 mph - N/A   Clear
6:15 AM 59.0 °F 53.6 °F 82% 29.86 in 10.0 mi North 4.6 mph - N/A   Clear
6:35 AM 59.0 °F 53.6 °F 82% 29.86 in 10.0 mi North - - N/A   Clear
6:55 AM 60.8 °F 55.4 °F 82% 29.86 in 10.0 mi North 4.6 mph - N/A   Clear
7:15 AM 62.6 °F 57.2 °F 82% 29.87 in 10.0 mi NE 5.8 mph - N/A   Partly Cloudy
7:35 AM 62.6 °F 57.2 °F 82% 29.87 in 10.0 mi North - - N/A   Partly Cloudy
7:55 AM 64.4 °F 59.0 °F 83% 29.87 in 10.0 mi NE 6.9 mph - N/A   Clear
8:15 AM 64.4 °F 59.0 °F 83% 29.88 in 9.0 mi East 6.9 mph - N/A   Clear
8:35 AM 64.4 °F 59.0 °F 83% 29.88 in 10.0 mi East 8.1 mph - N/A   Partly Cloudy
8:55 AM 66.2 °F 59.0 °F 78% 29.88 in 10.0 mi East 9.2 mph 15.0 mph N/A   Mostly Cloudy
9:15 AM 68.0 °F 59.0 °F 73% 29.88 in 10.0 mi ESE 10.4 mph - N/A   Mostly Cloudy
9:35 AM 69.8 °F 60.8 °F 73% 29.88 in 10.0 mi ESE 11.5 mph - N/A   Scattered Clouds
9:55 AM 69.8 °F 60.8 °F 73% 29.88 in 10.0 mi ESE 12.7 mph - N/A   Scattered Clouds
10:15 AM 69.8 °F 60.8 °F 73% 29.89 in 10.0 mi SE 9.2 mph - N/A   Partly Cloudy
10:35 AM 69.8 °F 59.0 °F 68% 29.89 in 10.0 mi ESE 10.4 mph - N/A   Partly Cloudy
10:55 AM 68.0 °F 59.0 °F 73% 29.89 in 10.0 mi ESE 8.1 mph - N/A   Clear
11:15 AM 68.0 °F 59.0 °F 73% 29.90 in 10.0 mi SE 6.9 mph - N/A   Mostly Cloudy
11:35 AM 69.8 °F 57.2 °F 64% 29.90 in 10.0 mi ESE 9.2 mph 15.0 mph N/A   Mostly Cloudy
11:55 AM 69.8 °F 57.2 °F 64% 29.90 in 10.0 mi SE 12.7 mph - N/A   Partly Cloudy
12:15 PM 69.8 °F 57.2 °F 64% 29.90 in 10.0 mi ESE 9.2 mph 17.3 mph N/A   Partly Cloudy
12:55 PM 71.6 °F 57.2 °F 60% 29.90 in 10.0 mi East 9.2 mph 15.0 mph N/A   Scattered Clouds
1:15 PM 71.6 °F 57.2 °F 60% 29.90 in 10.0 mi East 11.5 mph - N/A   Clear
1:35 PM 69.8 °F 55.4 °F 60% 29.89 in 10.0 mi East 8.1 mph 15.0 mph N/A   Clear
2:35 PM 71.6 °F 55.4 °F 57% 29.88 in 10.0 mi East 10.4 mph - N/A   Clear
2:55 PM 71.6 °F 55.4 °F 57% 29.88 in 10.0 mi East 8.1 mph 15.0 mph N/A   Clear
3:55 PM 71.6 °F 55.4 °F 57% 29.87 in 10.0 mi NE 9.2 mph - N/A   Partly Cloudy
4:15 PM 71.6 °F 55.4 °F 57% 29.87 in 10.0 mi NE 11.5 mph - N/A   Clear
4:55 PM 71.6 °F 55.4 °F 57% 29.86 in 10.0 mi ENE 11.5 mph - N/A   Partly Cloudy
5:15 PM 71.6 °F 55.4 °F 57% 29.86 in 10.0 mi NE 11.5 mph - N/A   Clear
5:35 PM 71.6 °F 55.4 °F 57% 29.86 in 10.0 mi ENE 10.4 mph 20.7 mph N/A   Clear
5:55 PM 69.8 °F 55.4 °F 60% 29.85 in 10.0 mi NE 11.5 mph - N/A   Clear
6:15 PM 71.6 °F 55.4 °F 57% 29.85 in 10.0 mi ENE 11.5 mph - N/A   Clear
6:55 PM 71.6 °F 55.4 °F 57% 29.85 in 10.0 mi NE 12.7 mph 18.4 mph N/A   Clear
7:15 PM 69.8 °F 55.4 °F 60% 29.85 in 10.0 mi ENE 9.2 mph 17.3 mph N/A   Partly Cloudy
7:35 PM 69.8 °F 55.4 °F 60% 29.85 in 10.0 mi ENE 9.2 mph - N/A   Clear
7:55 PM 69.8 °F 55.4 °F 60% 29.85 in 10.0 mi East 8.1 mph - N/A   Clear
8:15 PM 68.0 °F 55.4 °F 64% 29.84 in 10.0 mi East 5.8 mph - N/A   Clear
8:35 PM 68.0 °F 55.4 °F 64% 29.84 in 10.0 mi ENE 5.8 mph - N/A   Clear
8:55 PM 66.2 °F 55.4 °F 68% 29.84 in 10.0 mi Calm Calm - N/A   Clear
9:15 PM 64.4 °F 55.4 °F 73% 29.84 in 10.0 mi Calm Calm - N/A   Clear
9:35 PM 62.6 °F 57.2 °F 82% 29.85 in 10.0 mi Calm Calm - N/A   Clear
10:15 PM 62.6 °F 57.2 °F 82% 29.84 in 10.0 mi Calm Calm - N/A   Clear
10:35 PM 59.0 °F 57.2 °F 94% 29.84 in 10.0 mi Calm Calm - N/A   Clear
10:55 PM 59.0 °F 57.2 °F 94% 29.84 in 10.0 mi Calm Calm - N/A   Clear
11:15 PM 59.0 °F 57.2 °F 94% 29.84 in 3.0 mi North 3.5 mph - N/A   Clear
11:35 PM 59.0 °F 57.2 °F 94% 29.84 in 0.8 mi North 4.6 mph - N/A   Mist
11:55 PM 60.8 °F 55.4 °F 82% 29.84 in 10.0 mi North 5.8 mph - N/A   Clear